Regional Weather Roundup
Issued by NWS

Home | Current Version | Previous Version | Graphics & Text | Print | Product List | Glossary On
Versions: 1 2 3 4 5 6 7 8 9 10 11 12 13 14 15 16 17 18 19 20 21 22 23 24 25 26 27 28 29 30 31 32 33 34 35 36 37 38 39 40 41 42 43 44 45 46 47 48 49 50
000
ASUS45 KABQ 031810
RWRNM
NEW MEXICO REGIONAL WEATHER ROUNDUP
NATIONAL WEATHER SERVICE ALBUQUERQUE NM
1200 PM MDT TUE MAY 03 2016

NOTE: "FAIR" MEANS FEW OR NO CLOUDS BELOW 12,000 FEET AGL WITH NO
       SIGNIFICANT WEATHER OR OBSTRUCTIONS TO VISION.

      THIS PRODUCT IS RELEASED AS TWO VERSIONS.  ONE VERSION NEAR
      THE TOP OF THE HOUR CONTAINING PRELIMINARY DATA FROM ALBUQUERQUE
      AND OTHER STATIONS.  A FINAL VERSION WITH ADDITIONAL DATA IS
      ISSUED ABOUT 10 MINUTES AFTER THE HOUR.

NMZ501-503-504-510>518-031900-
NORTHWEST PLATEAU/NORTHCENTRAL MOUNTAINS

CITY           SKY/WX    TMP DP  RH WIND       PRES   REMARKS
FARMINGTON     FAIR      60  35  39 CALM      30.22S
6HR MIN TEMP:  36; 6HR MAX TEMP:  60;

LOS ALAMOS     FAIR      57  29  34 NE10      30.26F
SANTA FE       FAIR      63  27  25 N15G24    30.21S
6HR MIN TEMP:  34; 6HR MAX TEMP:  64;

TAOS           FAIR      55  28  35 N6        30.26F
ANGEL FIRE     CLOUDY    48  28  46 N6        30.28F

$$
NMZ402-403-502-505>509-031900-
WESTCENTRAL MOUNTAINS/SOUTHWEST MOUNTAINS

CITY           SKY/WX    TMP DP  RH WIND       PRES   REMARKS
GALLUP         FAIR      59  35  40 MISG      30.25F
6HR MIN TEMP:  39; 6HR MAX TEMP:  59;

GRANTS         FAIR      58  35  41 W5        30.26F
SILVER CITY      N/A     68  32  26 S5G20     30.19S

$$
NMZ407-409-411-412-031900-
SOUTHERN DESERTS

CITY           SKY/WX    TMP DP  RH WIND       PRES   REMARKS
LORDSBURG      FAIR      73  32  21 SE12G22   30.11F
DEMING           N/A    N/A N/A N/A MISG      30.13F
LAS CRUCES     FAIR      70  31  23 CALM      30.15F
HOLLOMAN AFB   FAIR      70  30  22 VRB3      30.13F
ALAMOGORDO     FAIR      70  28  21 N7        30.15F
T OR C         FAIR      68  33  27 CALM      30.15F
6HR MIN TEMP:  47; 6HR MAX TEMP:  68;


$$
NMZ519>523-031900-
CENTRAL VALLEYS/CENTRAL HIGHLANDS

CITY           SKY/WX    TMP DP  RH WIND       PRES   REMARKS
ALBUQUERQUE    FAIR      65  33  30 N6        30.21F
6HR MIN TEMP:  46; 6HR MAX TEMP:  65;

MORIARTY ARPT  PTSUNNY   61  24  23 NW5       30.22F
6HR MIN TEMP:  32; 6HR MAX TEMP:  64;

CLINES CORNERS CLOUDY    58  27  30 E14G22    30.22S
6HR MIN TEMP:  40; 6HR MAX TEMP:  61;

BELEN          FAIR      64  34  33 CALM      30.21F
6HR MIN TEMP:  40; 6HR MAX TEMP:  64;

SOCORRO        FAIR      66  34  30 CALM      30.18F
6HR MIN TEMP:  42; 6HR MAX TEMP:  67;


$$
NMZ524>526-539-540-031900-
SOUTHCENTRAL MOUNTAINS

CITY           SKY/WX    TMP DP  RH WIND       PRES   REMARKS
RUIDOSO          N/A     61  28  29 NW13G21   30.25F

$$
NMZ527>531-031900-
NORTHEAST HIGHLANDS/NORTHEAST PLAINS

CITY           SKY/WX    TMP DP  RH WIND       PRES   REMARKS
LAS VEGAS      FAIR      57  31  37 NE17G25   30.25S
6HR MIN TEMP:  33; 6HR MAX TEMP:  58;

RATON          FAIR      58  27  30 NE14G35   30.23F
6HR MIN TEMP:  29; 6HR MAX TEMP:  59;

CLAYTON        FAIR      63  32  31 N21G29    30.17F
6HR MIN TEMP:  43; 6HR MAX TEMP:  63;


$$
NMZ532>537-031900-
EASTCENTRAL PLAINS

CITY           SKY/WX    TMP DP  RH WIND       PRES   REMARKS
TUCUMCARI      FAIR      68  32  26 NE16G24   30.16S
6HR MIN TEMP:  39; 6HR MAX TEMP:  69;

CANNON AFB     PTSUNNY   67  38  34 N8        30.14F
6HR MIN TEMP:  38; 6HR MAX TEMP:  67;

CLOVIS AIRPORT PTSUNNY   66  43  42 N9        30.16S

$$
NMZ028-029-538-031900-
SOUTHEAST PLAINS

CITY           SKY/WX    TMP DP  RH WIND       PRES   REMARKS
ROSWELL        FAIR      71  35  26 VRB7      30.12F
6HR MIN TEMP:  36; 6HR MAX TEMP:  71;

ARTESIA        FAIR      72  36  26 N6G12     30.12F
CARLSBAD       FAIR      75  34  22 S5        30.09F
6HR MIN TEMP:  41; 6HR MAX TEMP:  75;

HOBBS          SUNNY     72  32  23 SW5       30.13F


$$




USA.gov is the U.S. government's official web portal to all federal, state and local government web resources and services.